Simultaneous Nadir Overpasses (SNOs) Predictions

Prediction of SNOs between NOAA-21 and METOP-B Satellite Orbit:

Table of predicted SNOs for the next 14.0 days since TLE Epoch: 1/11/2024
Index Date (NOAA-21) Time (NOAA-21) Lat,Lon (NOAA-21) SZA (NOAA-21 ) Date (METOP-B) Time (METOP-B) Lat,Lon (METOP-B) SZA (METOP-B ) Distance(km) Time Diff (sec)
1 01/24/2024 13:05:35 73.57, -26.76 93.15 01/24/2024 13:06:43 73.51, -24.41 92.94 74.49 68
2 01/24/2024 13:56:18 -73.52, 140.67 86.92 01/24/2024 13:57:26 -73.47, 142.83 87.11 68.38 68
3 01/24/2024 14:46:59 73.28, -51.47 92.81 01/24/2024 14:48:10 73.25, -50.34 92.69 36.51 71
4 01/24/2024 15:37:42 -73.23, 115.95 87.26 01/24/2024 15:38:54 -73.16, 116.79 87.40 28.19 72
5 01/24/2024 16:28:23 72.99, -76.20 92.46 01/24/2024 16:29:37 72.98, -76.25 92.44 1.72 74
6 01/24/2024 17:19:07 -72.99, 91.11 87.55 01/24/2024 17:20:19 -73.00, 91.10 87.56 0.54 72
7 01/24/2024 18:09:53 73.00,-101.60 92.46 01/24/2024 18:10:59 72.97,-101.62 92.41 3.23 66
8 01/24/2024 19:00:37 -73.00, 65.72 87.55 01/24/2024 19:01:41 -72.98, 65.73 87.59 1.98 64
9 01/24/2024 19:51:23 73.01,-126.99 92.45 01/24/2024 19:52:20 73.01,-126.88 92.43 3.39 57
10 01/24/2024 20:42:06 -72.96, 40.43 87.62 01/24/2024 20:43:03 -72.97, 40.36 87.62 2.66 57
11 01/24/2024 21:32:52 72.96,-152.27 92.39 01/24/2024 21:33:42 72.99,-152.25 92.40 3.36 50
12 01/24/2024 22:23:36 -72.97, 15.04 87.63 01/24/2024 22:24:25 -72.96, 14.99 87.65 1.95 49
13 01/24/2024 23:14:22 72.97,-177.66 92.38 01/24/2024 23:15:04 72.98,-177.62 92.37 1.60 42
14 01/25/2024 00:05:06 -72.97, -10.35 87.63 01/25/2024 00:05:46 -72.99, -10.27 87.63 3.36 40
15 01/25/2024 00:55:52 72.98, 156.94 92.37 01/25/2024 00:56:26 72.97, 157.01 92.34 2.56 34
16 01/25/2024 01:46:36 -72.98, -35.74 87.64 01/25/2024 01:47:08 -72.98, -35.64 87.66 3.36 32
17 01/25/2024 02:37:21 72.94, 131.66 92.31 01/25/2024 02:37:48 72.95, 131.64 92.32 1.82 27



Historial Predications of SNOs between NOAA-21 and METOP-B
